Tracking 19199 objects as of 24-Jun-2018
HD Live streaming from Space Station
objects crossing your sky now

FENGYUN 1C DEB

Track FENGYUN 1C DEB now!
10-day predictions


NORAD ID: 30984
Int'l Code: 1999-025BCA
Perigee: 665.0 km
Apogee: 882.2 km
Inclination: 98.6 °
Period: 100.2 minutes
Semi major axis: 7144 km
RCS: 0.0104 m2 (small)
Launch date: May 10, 1999
Source: People's Republic of China (PRC)
Launch site: Taiyaun Space Center, China (TSC)

Note: This is SATELLITE DEBRIS
aabbcc
Your satellite tracking list
Your tracking list is empty




NASA's NSSDC Master Catalog

Two Line Element Set (TLE):
1 30984U 99025BCA 18174.91467887 +.00000357 +00000-0 +11919-3 0  9999
2 30984 098.5736 215.3165 0152004 293.8640 191.2887 14.37594163558660
Source of the keplerian elements: AFSPC